Regional Weather Roundup
Issued by NWS Northern Indiana

Home | Current Version | Previous Version | Graphics & Text | Print | Product List | Glossary On
Versions: 1 2 3 4 5 6 7 8 9 10 11 12 13 14 15 16 17 18 19 20 21 22 23 24 25 26 27 28 29 30 31 32 33 34 35 36 37 38 39 40 41 42 43 44 45 46 47 48 49 50
000
ASUS43 KIWX 231510
RWRIWX

KIWX WEATHER ROUNDUP
NATIONAL WEATHER SERVICE NORTHERN INDIANA
1000 AM EST TUE JAN 23 2018

NOTE: "FAIR" INDICATES FEW OR NO CLOUDS BELOW 12,000 FEET WITH NO
SIGNIFICANT WEATHER AND/OR OBSTRUCTIONS TO VISIBILITY.

* THESE STATIONS ARE NOT UNDER NWS QUALITY CONTROL. THEY ALSO MAY NOT
  REPORT WEATHER SUCH AS PRECIPITATION OR FOG.

INZ001>027-231600-
NORTHERN INDIANA

CITY           SKY/WX    TMP DP  RH WIND       PRES   REMARKS
GARY*          CLOUDY    34  30  86 NW12G23   29.74R WCI  25
VALPARAISO     CLOUDY    33  30  88 NW13G23   29.71R WCI  24
MICHIGAN CITY* LGT SNOW  32  32 100 NW10G17   29.72R VSB 1   WCI  24
LAPORTE*       LGT SNOW  31  30  94 NW9       29.70R WCI  23
KNOX*          CLOUDY    32  32 100 NW10      29.70R WCI  24
SOUTH BEND     LGT SNOW  31  29  92 NW16      29.68R VSB 3/4 WCI  20
ELKHART*       LGT SNOW  32  32 100 NW12      29.65R WCI  23
GOSHEN         LGT SNOW  33  32  96 W18G26    29.65R VSB 3/4 WCI  22
MONTICELLO*    CLOUDY    34  33  95 W14       29.72R WCI  25
LOGANSPORT*    DRIZZLE   34  32  93 SW17      29.72R WCI  23
ROCHESTER*     LGT RAIN  36  36 100 W12G22    29.69R
WARSAW*        MIX PCPN  32  32 100 W12       29.66R WCI  23
AUBURN*        DRIZZLE  N/A N/A N/A SW12G17   29.64R
FORT WAYNE     PTSUNNY   37  33  85 SW21G26   29.66R
HUNTINGTON*    CLOUDY    36  33  90 SW13G18   29.67R
PERU/GRISSOM   FLURRIES  34  34 100 SW21      29.70R WCI  22
MARION*        CLOUDY    34  32  93 SW14G23   29.72R WCI  24

$$
INZ028>050-231600-
CENTRAL INDIANA

CITY           SKY/WX    TMP DP  RH WIND       PRES   REMARKS
LAFAYETTE      CLOUDY    34  33  96 W13G22    29.75R FOG     WCI  25
MUNCIE*        CLOUDY    36  30  79 SW14G22   29.72R
INDIANAPOLIS   CLOUDY    35  32  88 SW17      29.78R WCI  25

$$
MIZ043>046-050>051-056>058-064>065-071>073-077>080-231600-
SOUTHWEST LOWER MICHIGAN

CITY           SKY/WX    TMP DP  RH WIND       PRES   REMARKS
BATTLE CREEK   CLOUDY    33  30  88 W17G24    29.58R WCI  22
BENTON HARBOR  LGT SNOW  32  28  85 NW13G23   29.68R FOG     WCI  22
COLDWATER*     CLOUDY    36  36 100 SW15      29.58R
HILLSDALE*     FLURRIES  34  32  93 SW12G17   29.56S WCI  25
HOLLAND        SNOW      32  29  88 NW18G29   29.61R VSB 1/2 WCI  20
GRAND RAPIDS   CLOUDY    33  29  85 W25       29.53R WCI  20
KALAMAZOO      LGT SNOW  33  30  88 W14       29.61R FOG     WCI  23
STURGIS*       LGT SNOW  35  34  96 W12G20    29.61R WCI  27
THREE RIVERS*  LGT SNOW  34  32  92 NW14      29.63R WCI  25

$$
OHZ001>008-015>018-024>025-231600-
NORTHWEST OHIO

CITY           SKY/WX    TMP DP  RH WIND       PRES   REMARKS
WAUSEON*       CLOUDY    37  37 100 SW17G24   29.60S
DEFIANCE       CLOUDY    37  33  85 SW16G25   29.63R
FINDLAY        CLOUDY    38  33  82 SW15      29.64R
TOLEDO EXPRESS CLOUDY    38  36  92 SW17G25   29.61R
TOLEDO METCALF CLOUDY    39  34  82 SW20      29.62S
LIMA           CLOUDY    36  33  89 SW23G30   29.67R

$$
AND FOR LAKE MICHIGAN COASTAL AND OPEN LAKE BUOY OBSERVATIONS

STATION/POSITION TEMP    WIND        PRES    VSBY  WAVE
                 AIR SEA DIR/SP/G                  HT/PER
                 (F)     (DEG/KT/KT) (MB)    (MI)  (FT/S)
CALUMET HARBOR    31     300/ 10/ 16 1006.3R
MICHIGAN CITY     31     280/ 20/ 22   N/A
BURNS HARBOR      31     310/ 17/ 22 1007.5
SAINT JOSEPH      32     310/ 15/ 22 1005.8

$$
&&



USA.gov is the U.S. government's official web portal to all federal, state and local government web resources and services.